TimeCST,TemperatureF,Dew PointF,Humidity,Sea Level PressureIn,VisibilityMPH,Wind Direction,Wind SpeedMPH,Gust SpeedMPH,PrecipitationIn,Events,Conditions,WindDirDegrees,DateUTC
12:53 AM,19.0,16.0,88,30.32,6.0,WSW,5.8,-,N/A,,Clear,250,2013-01-07 06:53:00
1:53 AM,18.0,15.1,88,30.33,6.0,SW,5.8,-,N/A,,Clear,230,2013-01-07 07:53:00
2:53 AM,17.1,14.0,88,30.32,6.0,SSW,5.8,-,N/A,,Clear,210,2013-01-07 08:53:00
3:53 AM,18.0,14.0,84,30.31,8.0,SSW,6.9,-,N/A,,Clear,210,2013-01-07 09:53:00
4:53 AM,18.0,14.0,84,30.30,9.0,SSW,8.1,-,N/A,,Clear,210,2013-01-07 10:53:00
5:53 AM,18.0,12.9,81,30.30,10.0,SW,10.4,-,N/A,,Clear,220,2013-01-07 11:53:00
6:53 AM,19.9,14.0,78,30.30,10.0,SSW,12.7,-,N/A,,Clear,200,2013-01-07 12:53:00
7:53 AM,21.9,16.0,78,30.29,10.0,SSW,12.7,-,N/A,,Clear,200,2013-01-07 13:53:00
8:53 AM,26.1,18.0,71,30.26,10.0,SSW,16.1,26.5,N/A,,Clear,200,2013-01-07 14:53:00
9:53 AM,28.9,19.0,67,30.25,10.0,SSW,17.3,24.2,N/A,,Clear,200,2013-01-07 15:53:00
10:53 AM,32.0,19.9,61,30.22,10.0,SSW,16.1,-,N/A,,Clear,210,2013-01-07 16:53:00
11:53 AM,35.1,21.0,57,30.17,10.0,SW,20.7,28.8,N/A,,Clear,220,2013-01-07 17:53:00
1:53 PM,39.0,24.1,55,30.11,10.0,SW,17.3,28.8,N/A,,Clear,220,2013-01-07 19:53:00
2:53 PM,39.9,24.1,53,30.09,10.0,SSW,19.6,28.8,N/A,,Clear,210,2013-01-07 20:53:00
3:53 PM,37.9,24.1,57,30.10,10.0,SW,12.7,-,N/A,,Clear,220,2013-01-07 21:53:00
5:53 PM,35.1,24.1,64,30.11,10.0,SW,8.1,-,N/A,,Clear,220,2013-01-07 23:53:00
6:53 PM,34.0,25.0,70,30.11,10.0,SSW,11.5,-,N/A,,Clear,210,2013-01-08 00:53:00
7:53 PM,33.1,25.0,72,30.10,10.0,SSW,9.2,-,N/A,,Clear,210,2013-01-08 01:53:00
8:53 PM,32.0,26.1,79,30.11,8.0,SSW,10.4,-,N/A,,Clear,210,2013-01-08 02:53:00
9:53 PM,32.0,26.1,79,30.11,7.0,SSW,10.4,-,N/A,,Clear,210,2013-01-08 03:53:00
10:53 PM,30.9,26.1,82,30.10,7.0,SSW,12.7,-,N/A,,Clear,210,2013-01-08 04:53:00
11:53 PM,30.9,26.1,82,30.10,7.0,SSW,11.5,-,N/A,,Clear,210,2013-01-08 05:53:00